Time,TemperatureF,DewpointF,PressureIn,WindDirection,WindDirectionDegrees,WindSpeedMPH,WindSpeedGustMPH,Humidity,HourlyPrecipIn,Conditions,Clouds,dailyrainin,SoftwareType,DateUTC
2013-03-08 00:00:00,58.8,51.3,29.61,North,0,0.0,0.0,76,0.00,,,0.00,WUHU21623XXSP,2013-03-08 05:00:00,
2013-03-08 00:02:00,58.8,51.3,29.61,North,0,0.0,0.0,76,0.00,,,0.00,WUHU21623XXSP,2013-03-08 05:02:00,
2013-03-08 00:07:00,58.6,51.4,29.61,North,0,0.0,0.0,77,0.00,,,0.00,WUHU21623XXSP,2013-03-08 05:07:00,
2013-03-08 00:12:00,58.6,51.4,29.61,North,0,0.0,0.0,77,0.00,,,0.00,WUHU21623XXSP,2013-03-08 05:12:00,
2013-03-08 00:17:00,58.6,51.4,29.61,North,0,0.0,0.0,77,0.00,,,0.00,WUHU21623XXSP,2013-03-08 05:17:00,
2013-03-08 00:22:00,58.1,50.9,29.61,North,0,0.0,0.0,77,0.00,,,0.00,WUHU21623XXSP,2013-03-08 05:22:00,
2013-03-08 00:27:00,58.1,50.9,29.61,North,0,0.0,0.0,77,0.00,,,0.00,WUHU21623XXSP,2013-03-08 05:27:00,
2013-03-08 00:32:00,58.1,50.9,29.61,North,0,0.0,0.0,77,0.00,,,0.00,WUHU21623XXSP,2013-03-08 05:32:00,
2013-03-08 00:37:00,57.9,50.7,29.60,North,0,0.0,0.0,77,0.00,,,0.00,WUHU21623XXSP,2013-03-08 05:37:00,
2013-03-08 00:42:00,57.7,50.9,29.60,North,0,0.0,0.0,78,0.00,,,0.00,WUHU21623XXSP,2013-03-08 05:42:00,
2013-03-08 00:47:00,57.7,50.9,29.60,North,0,0.0,0.0,78,0.00,,,0.00,WUHU21623XXSP,2013-03-08 05:47:00,
2013-03-08 00:52:00,57.9,51.1,29.60,North,0,0.0,0.0,78,0.00,,,0.00,WUHU21623XXSP,2013-03-08 05:52:00,
2013-03-08 00:57:00,57.7,50.9,29.60,North,0,0.0,0.0,78,0.00,,,0.00,WUHU21623XXSP,2013-03-08 05:57:00,
2013-03-08 01:02:00,57.6,50.7,29.60,North,0,0.0,0.0,78,0.00,,,0.00,WUHU21623XXSP,2013-03-08 06:02:00,
2013-03-08 01:07:00,57.6,50.7,29.60,North,0,0.0,0.0,78,0.00,,,0.00,WUHU21623XXSP,2013-03-08 06:07:00,
2013-03-08 01:12:00,57.4,50.9,29.60,North,0,0.0,0.0,79,0.00,,,0.00,WUHU21623XXSP,2013-03-08 06:12:00,
2013-03-08 01:17:00,57.4,50.9,29.60,North,0,0.0,0.0,79,0.00,,,0.00,WUHU21623XXSP,2013-03-08 06:17:00,
2013-03-08 01:22:00,57.4,50.9,29.60,North,0,0.0,0.0,79,0.00,,,0.00,WUHU21623XXSP,2013-03-08 06:22:00,
2013-03-08 01:27:00,57.4,50.9,29.60,North,0,0.0,0.0,79,0.00,,,0.00,WUHU21623XXSP,2013-03-08 06:27:00,
2013-03-08 01:32:00,57.6,51.1,29.59,North,0,0.0,0.0,79,0.00,,,0.00,WUHU21623XXSP,2013-03-08 06:32:00,
2013-03-08 01:37:00,57.4,50.9,29.59,North,0,0.0,0.0,79,0.00,,,0.00,WUHU21623XXSP,2013-03-08 06:37:00,
2013-03-08 01:42:00,57.4,50.9,29.59,North,0,0.0,0.0,79,0.00,,,0.00,WUHU21623XXSP,2013-03-08 06:42:00,
2013-03-08 01:47:00,57.4,50.9,29.59,North,0,0.0,0.0,79,0.00,,,0.00,WUHU21623XXSP,2013-03-08 06:47:00,
2013-03-08 01:52:00,57.2,50.4,29.59,North,0,0.0,0.0,78,0.00,,,0.00,WUHU21623XXSP,2013-03-08 06:52:00,
2013-03-08 01:57:00,57.0,50.2,29.59,North,0,0.0,0.0,78,0.00,,,0.00,WUHU21623XXSP,2013-03-08 06:57:00,
2013-03-08 02:02:00,57.0,50.5,29.59,NNW,337,0.0,0.0,79,0.00,,,0.00,WUHU21623XXSP,2013-03-08 07:02:00,
2013-03-08 02:07:00,57.0,50.5,29.59,NNW,337,0.0,0.0,79,0.00,,,0.00,WUHU21623XXSP,2013-03-08 07:07:00,
2013-03-08 02:12:00,57.0,50.5,29.59,NNW,337,0.0,0.0,79,0.00,,,0.00,WUHU21623XXSP,2013-03-08 07:12:00,
2013-03-08 02:17:00,57.0,50.2,29.59,NNW,337,0.0,0.0,78,0.00,,,0.00,WUHU21623XXSP,2013-03-08 07:17:00,
2013-03-08 02:22:00,57.0,50.2,29.58,West,270,0.0,0.0,78,0.00,,,0.00,WUHU21623XXSP,2013-03-08 07:22:00,
2013-03-08 02:27:00,57.0,50.2,29.58,West,270,0.0,0.0,78,0.00,,,0.00,WUHU21623XXSP,2013-03-08 07:27:00,
2013-03-08 02:32:00,56.8,50.0,29.58,West,270,0.0,0.0,78,0.00,,,0.00,WUHU21623XXSP,2013-03-08 07:32:00,
2013-03-08 02:37:00,56.5,49.6,29.58,West,270,0.0,0.0,78,0.00,,,0.00,WUHU21623XXSP,2013-03-08 07:37:00,
2013-03-08 02:42:00,56.5,49.6,29.58,West,270,0.0,0.0,78,0.00,,,0.00,WUHU21623XXSP,2013-03-08 07:42:00,
2013-03-08 02:47:00,56.3,49.5,29.58,West,270,0.0,0.0,78,0.00,,,0.00,WUHU21623XXSP,2013-03-08 07:47:00,
2013-03-08 02:52:00,55.9,49.5,29.58,West,270,0.0,0.0,79,0.00,,,0.00,WUHU21623XXSP,2013-03-08 07:52:00,
2013-03-08 02:57:00,55.9,49.5,29.58,West,270,0.0,0.0,79,0.00,,,0.00,WUHU21623XXSP,2013-03-08 07:57:00,
2013-03-08 03:02:00,55.9,49.5,29.58,West,270,0.0,0.0,79,0.00,,,0.00,WUHU21623XXSP,2013-03-08 08:02:00,
2013-03-08 03:07:00,55.6,49.1,29.58,West,270,0.0,0.0,79,0.00,,,0.00,WUHU21623XXSP,2013-03-08 08:07:00,
2013-03-08 03:12:00,55.6,49.1,29.58,NW,315,0.0,0.0,79,0.00,,,0.00,WUHU21623XXSP,2013-03-08 08:12:00,
2013-03-08 03:17:00,55.6,49.5,29.58,NW,315,0.0,0.0,80,0.00,,,0.00,WUHU21623XXSP,2013-03-08 08:17:00,
2013-03-08 03:22:00,55.8,49.6,29.58,NW,315,0.0,0.0,80,0.00,,,0.00,WUHU21623XXSP,2013-03-08 08:22:00,
2013-03-08 03:27:00,55.4,49.1,29.58,NW,315,0.0,0.0,79,0.00,,,0.00,WUHU21623XXSP,2013-03-08 08:27:00,
2013-03-08 03:32:00,55.4,48.9,29.59,NW,315,0.0,0.0,79,0.00,,,0.00,WUHU21623XXSP,2013-03-08 08:32:00,
2013-03-08 03:37:00,55.2,49.1,29.59,NW,315,0.0,0.0,80,0.00,,,0.00,WUHU21623XXSP,2013-03-08 08:37:00,
2013-03-08 03:42:00,55.2,49.1,29.59,NW,315,0.0,0.0,80,0.00,,,0.00,WUHU21623XXSP,2013-03-08 08:42:00,
2013-03-08 03:47:00,55.2,49.1,29.58,NW,315,0.0,0.0,80,0.00,,,0.00,WUHU21623XXSP,2013-03-08 08:47:00,
2013-03-08 03:52:00,55.2,49.1,29.58,NW,315,0.0,0.0,80,0.00,,,0.00,WUHU21623XXSP,2013-03-08 08:52:00,
2013-03-08 03:57:00,55.2,49.1,29.58,NW,315,0.0,0.0,80,0.00,,,0.00,WUHU21623XXSP,2013-03-08 08:57:00,
2013-03-08 04:02:00,55.2,49.1,29.58,NNW,337,0.0,0.0,80,0.00,,,0.00,WUHU21623XXSP,2013-03-08 09:02:00,
2013-03-08 04:07:00,55.2,49.1,29.58,NNW,337,0.0,0.0,80,0.00,,,0.00,WUHU21623XXSP,2013-03-08 09:07:00,
2013-03-08 04:12:00,55.2,48.8,29.58,NNW,337,0.0,0.0,79,0.00,,,0.00,WUHU21623XXSP,2013-03-08 09:12:00,
2013-03-08 04:17:00,55.2,48.8,29.58,NNW,337,0.0,0.0,79,0.00,,,0.00,WUHU21623XXSP,2013-03-08 09:17:00,
2013-03-08 04:22:00,55.0,48.6,29.58,NNW,337,0.0,0.0,79,0.00,,,0.00,WUHU21623XXSP,2013-03-08 09:22:00,
2013-03-08 04:27:00,55.0,48.6,29.58,NNW,337,0.0,0.0,79,0.00,,,0.00,WUHU21623XXSP,2013-03-08 09:27:00,
2013-03-08 04:32:00,55.0,48.6,29.58,NNW,337,0.0,0.0,79,0.00,,,0.00,WUHU21623XXSP,2013-03-08 09:32:00,
2013-03-08 04:37:00,55.0,48.6,29.58,North,0,0.0,0.0,79,0.00,,,0.00,WUHU21623XXSP,2013-03-08 09:37:00,
2013-03-08 04:42:00,55.0,48.3,29.58,NNW,337,0.0,0.0,78,0.00,,,0.00,WUHU21623XXSP,2013-03-08 09:42:00,
2013-03-08 04:47:00,55.0,48.3,29.58,North,0,0.0,0.0,78,0.00,,,0.00,WUHU21623XXSP,2013-03-08 09:47:00,
2013-03-08 04:52:00,55.2,48.4,29.58,North,0,0.0,0.0,78,0.00,,,0.00,WUHU21623XXSP,2013-03-08 09:52:00,
2013-03-08 04:57:00,55.0,47.9,29.58,North,0,0.0,0.0,77,0.00,,,0.00,WUHU21623XXSP,2013-03-08 09:57:00,
2013-03-08 05:02:00,55.0,47.9,29.58,North,0,0.0,0.0,77,0.00,,,0.00,WUHU21623XXSP,2013-03-08 10:02:00,
2013-03-08 05:07:00,55.0,47.9,29.58,North,0,0.0,0.0,77,0.00,,,0.00,WUHU21623XXSP,2013-03-08 10:07:00,
2013-03-08 05:13:00,55.0,47.6,29.58,North,0,0.0,0.0,76,0.00,,,0.00,WUHU21623XXSP,2013-03-08 10:13:00,
2013-03-08 05:18:00,55.0,47.6,29.58,North,0,0.0,0.0,76,0.00,,,0.00,WUHU21623XXSP,2013-03-08 10:18:00,
2013-03-08 05:23:00,55.0,47.2,29.58,NNE,22,0.0,0.0,75,0.00,,,0.00,WUHU21623XXSP,2013-03-08 10:23:00,
2013-03-08 05:28:00,55.0,47.2,29.58,NNE,22,0.0,0.0,75,0.00,,,0.00,WUHU21623XXSP,2013-03-08 10:28:00,
2013-03-08 05:33:00,55.0,47.2,29.58,NNE,22,0.0,0.0,75,0.00,,,0.00,WUHU21623XXSP,2013-03-08 10:33:00,
2013-03-08 05:38:00,54.9,47.0,29.59,NNE,22,0.0,0.0,75,0.00,,,0.00,WUHU21623XXSP,2013-03-08 10:38:00,
2013-03-08 05:43:00,54.9,47.0,29.59,NNE,22,0.0,0.0,75,0.00,,,0.00,WUHU21623XXSP,2013-03-08 10:43:00,
2013-03-08 05:48:00,55.0,47.2,29.58,NNE,22,0.0,0.0,75,0.00,,,0.00,WUHU21623XXSP,2013-03-08 10:48:00,
2013-03-08 05:53:00,55.0,47.2,29.59,NNE,22,0.0,0.0,75,0.00,,,0.00,WUHU21623XXSP,2013-03-08 10:53:00,
2013-03-08 05:58:00,54.9,47.0,29.59,NNE,22,0.0,0.0,75,0.00,,,0.00,WUHU21623XXSP,2013-03-08 10:58:00,
2013-03-08 06:03:00,54.9,47.0,29.59,NNE,22,0.0,0.0,75,0.00,,,0.00,WUHU21623XXSP,2013-03-08 11:03:00,
2013-03-08 06:08:00,54.7,46.5,29.59,NNE,22,0.0,0.0,74,0.00,,,0.00,WUHU21623XXSP,2013-03-08 11:08:00,
2013-03-08 06:13:00,54.5,46.4,29.60,NNE,22,0.0,0.0,74,0.00,,,0.00,WUHU21623XXSP,2013-03-08 11:13:00,
2013-03-08 06:18:00,54.3,46.2,29.60,NNE,22,0.0,0.0,74,0.00,,,0.00,WUHU21623XXSP,2013-03-08 11:18:00,
2013-03-08 06:23:00,54.1,46.4,29.60,NNE,22,0.0,0.0,75,0.00,,,0.00,WUHU21623XXSP,2013-03-08 11:23:00,
2013-03-08 06:28:00,54.1,46.4,29.60,North,0,0.0,0.0,75,0.00,,,0.00,WUHU21623XXSP,2013-03-08 11:28:00,
2013-03-08 06:33:00,54.1,46.4,29.60,NNW,337,0.0,0.0,75,0.00,,,0.00,WUHU21623XXSP,2013-03-08 11:33:00,
2013-03-08 06:38:00,54.3,46.5,29.60,North,0,0.0,0.0,75,0.00,,,0.00,WUHU21623XXSP,2013-03-08 11:38:00,
2013-03-08 06:43:00,54.5,46.4,29.60,North,0,0.0,0.0,74,0.00,,,0.00,WUHU21623XXSP,2013-03-08 11:43:00,
2013-03-08 06:48:00,54.5,46.4,29.60,North,0,0.0,0.0,74,0.00,,,0.00,WUHU21623XXSP,2013-03-08 11:48:00,
2013-03-08 06:53:00,54.5,46.7,29.60,North,0,0.0,0.0,75,0.00,,,0.00,WUHU21623XXSP,2013-03-08 11:53:00,
2013-03-08 06:58:00,54.7,46.9,29.60,North,0,0.0,0.0,75,0.00,,,0.00,WUHU21623XXSP,2013-03-08 11:58:00,
2013-03-08 07:03:00,54.7,46.9,29.60,North,0,0.0,0.0,75,0.00,,,0.00,WUHU21623XXSP,2013-03-08 12:03:00,
2013-03-08 07:08:00,54.9,47.0,29.61,North,0,0.0,0.0,75,0.00,,,0.00,WUHU21623XXSP,2013-03-08 12:08:00,
2013-03-08 07:13:00,55.2,47.4,29.61,North,0,0.0,0.0,75,0.00,,,0.00,WUHU21623XXSP,2013-03-08 12:13:00,
2013-03-08 07:18:00,55.4,47.6,29.61,NNE,22,0.0,0.0,75,0.00,,,0.00,WUHU21623XXSP,2013-03-08 12:18:00,
2013-03-08 07:23:00,55.8,47.9,29.61,North,0,0.0,0.0,75,0.00,,,0.00,WUHU21623XXSP,2013-03-08 12:23:00,
2013-03-08 07:28:00,56.3,48.4,29.62,NNE,22,0.0,0.0,75,0.00,,,0.00,WUHU21623XXSP,2013-03-08 12:28:00,
2013-03-08 07:33:00,56.8,48.6,29.61,NNE,22,0.0,0.0,74,0.00,,,0.00,WUHU21623XXSP,2013-03-08 12:33:00,
2013-03-08 07:38:00,57.0,48.7,29.61,NNE,22,0.0,0.0,74,0.00,,,0.00,WUHU21623XXSP,2013-03-08 12:38:00,
2013-03-08 07:43:00,57.6,48.9,29.62,NNE,22,0.0,0.0,73,0.00,,,0.00,WUHU21623XXSP,2013-03-08 12:43:00,
2013-03-08 07:48:00,57.9,48.9,29.62,NNW,337,0.0,0.0,72,0.00,,,0.00,WUHU21623XXSP,2013-03-08 12:48:00,
2013-03-08 07:53:00,58.8,49.5,29.62,NNW,337,0.0,0.0,71,0.00,,,0.00,WUHU21623XXSP,2013-03-08 12:53:00,
2013-03-08 07:58:00,58.8,49.5,29.63,NNW,337,0.0,0.0,71,0.00,,,0.00,WUHU21623XXSP,2013-03-08 12:58:00,
2013-03-08 08:03:00,59.2,49.5,29.63,North,0,0.0,0.0,70,0.00,,,0.00,WUHU21623XXSP,2013-03-08 13:03:00,
2013-03-08 08:08:00,59.9,50.2,29.63,NNE,22,0.0,0.0,70,0.00,,,0.00,WUHU21623XXSP,2013-03-08 13:08:00,
2013-03-08 08:13:00,60.1,49.9,29.63,North,0,0.0,0.0,69,0.00,,,0.00,WUHU21623XXSP,2013-03-08 13:13:00,
2013-03-08 08:18:00,60.6,50.1,29.63,NNE,22,0.0,0.0,68,0.00,,,0.00,WUHU21623XXSP,2013-03-08 13:18:00,
2013-03-08 08:23:00,61.2,50.2,29.63,NE,45,0.0,0.0,67,0.00,,,0.00,WUHU21623XXSP,2013-03-08 13:23:00,
2013-03-08 08:28:00,61.7,50.6,29.63,North,0,0.0,0.0,67,0.00,,,0.00,WUHU21623XXSP,2013-03-08 13:28:00,
2013-03-08 08:33:00,62.4,50.5,29.63,North,0,0.0,0.0,65,0.00,,,0.00,WUHU21623XXSP,2013-03-08 13:33:00,
2013-03-08 08:38:00,62.8,50.4,29.63,NNE,22,0.0,0.0,64,0.00,,,0.00,WUHU21623XXSP,2013-03-08 13:38:00,
2013-03-08 08:43:00,63.1,50.3,29.63,NNE,22,0.0,0.0,63,0.00,,,0.00,WUHU21623XXSP,2013-03-08 13:43:00,
2013-03-08 08:48:00,63.7,49.9,29.63,North,0,0.0,0.0,61,0.00,,,0.00,WUHU21623XXSP,2013-03-08 13:48:00,
2013-03-08 08:53:00,64.2,50.0,29.63,NW,315,0.0,0.0,60,0.00,,,0.00,WUHU21623XXSP,2013-03-08 13:53:00,
2013-03-08 08:58:00,64.6,48.9,29.63,NNE,22,0.0,0.0,57,0.00,,,0.00,WUHU21623XXSP,2013-03-08 13:58:00,
2013-03-08 09:03:00,64.9,49.3,29.63,North,0,0.0,0.0,57,0.00,,,0.00,WUHU21623XXSP,2013-03-08 14:03:00,
2013-03-08 09:08:00,65.5,49.3,29.63,NE,45,0.0,0.0,56,0.00,,,0.00,WUHU21623XXSP,2013-03-08 14:08:00,
2013-03-08 09:13:00,65.7,48.0,29.63,North,0,0.0,0.0,53,0.00,,,0.00,WUHU21623XXSP,2013-03-08 14:13:00,
2013-03-08 09:18:00,66.0,48.4,29.64,NNW,337,0.0,0.0,53,0.00,,,0.00,WUHU21623XXSP,2013-03-08 14:18:00,
2013-03-08 09:23:00,66.4,48.7,29.64,NNE,22,0.0,0.0,53,0.00,,,0.00,WUHU21623XXSP,2013-03-08 14:23:00,
2013-03-08 09:28:00,66.9,49.2,29.64,North,0,0.0,0.0,53,0.00,,,0.00,WUHU21623XXSP,2013-03-08 14:28:00,
2013-03-08 09:33:00,67.6,49.4,29.64,NNE,22,0.0,0.0,52,0.00,,,0.00,WUHU21623XXSP,2013-03-08 14:33:00,
2013-03-08 09:38:00,67.6,48.9,29.64,NNE,22,0.0,0.0,51,0.00,,,0.00,WUHU21623XXSP,2013-03-08 14:38:00,
2013-03-08 09:43:00,68.2,48.3,29.64,NE,45,0.0,0.0,49,0.00,,,0.00,WUHU21623XXSP,2013-03-08 14:43:00,
2013-03-08 09:48:00,68.5,48.6,29.64,North,0,0.0,0.0,49,0.00,,,0.00,WUHU21623XXSP,2013-03-08 14:48:00,
2013-03-08 09:53:00,68.7,49.4,29.64,NNE,22,0.0,0.0,50,0.00,,,0.00,WUHU21623XXSP,2013-03-08 14:53:00,
2013-03-08 09:58:00,68.7,48.8,29.64,North,0,0.0,0.0,49,0.00,,,0.00,WUHU21623XXSP,2013-03-08 14:58:00,
2013-03-08 10:03:00,69.3,49.3,29.64,NNE,22,0.0,0.0,49,0.00,,,0.00,WUHU21623XXSP,2013-03-08 15:03:00,
2013-03-08 10:08:00,69.8,48.6,29.64,NNE,22,0.0,0.0,47,0.00,,,0.00,WUHU21623XXSP,2013-03-08 15:08:00,
2013-03-08 10:13:00,70.0,48.1,29.64,North,0,0.0,0.0,46,0.00,,,0.00,WUHU21623XXSP,2013-03-08 15:13:00,
2013-03-08 10:18:00,70.3,48.5,29.64,North,0,0.0,0.0,46,0.00,,,0.00,WUHU21623XXSP,2013-03-08 15:18:00,
2013-03-08 10:23:00,70.5,47.4,29.64,NNW,337,0.0,0.0,44,0.00,,,0.00,WUHU21623XXSP,2013-03-08 15:23:00,
2013-03-08 10:29:00,70.9,46.6,29.64,NNE,22,0.0,0.0,42,0.00,,,0.00,WUHU21623XXSP,2013-03-08 15:29:00,
2013-03-08 10:34:00,71.2,46.9,29.64,NNW,337,0.0,0.0,42,0.00,,,0.00,WUHU21623XXSP,2013-03-08 15:34:00,
2013-03-08 10:39:00,71.2,46.9,29.64,North,0,0.0,0.0,42,0.00,,,0.00,WUHU21623XXSP,2013-03-08 15:39:00,
2013-03-08 10:44:00,71.8,47.4,29.64,NNW,337,0.0,0.0,42,0.00,,,0.00,WUHU21623XXSP,2013-03-08 15:44:00,
2013-03-08 10:49:00,71.8,46.8,29.64,North,0,0.0,0.0,41,0.00,,,0.00,WUHU21623XXSP,2013-03-08 15:49:00,
2013-03-08 10:54:00,72.1,47.1,29.64,North,0,0.0,0.0,41,0.00,,,0.00,WUHU21623XXSP,2013-03-08 15:54:00,
2013-03-08 10:59:00,72.3,47.9,29.63,NNE,22,0.0,0.0,42,0.00,,,0.00,WUHU21623XXSP,2013-03-08 15:59:00,
2013-03-08 11:04:00,72.3,47.9,29.63,NNE,22,0.0,0.0,42,0.00,,,0.00,WUHU21623XXSP,2013-03-08 16:04:00,
2013-03-08 11:09:00,73.0,47.3,29.63,NNE,22,0.0,0.0,40,0.00,,,0.00,WUHU21623XXSP,2013-03-08 16:09:00,
2013-03-08 11:14:00,73.2,46.7,29.63,North,0,0.0,0.0,39,0.00,,,0.00,WUHU21623XXSP,2013-03-08 16:14:00,
2013-03-08 11:19:00,73.6,47.1,29.63,NNE,22,0.0,0.0,39,0.00,,,0.00,WUHU21623XXSP,2013-03-08 16:19:00,
2013-03-08 11:24:00,73.6,47.8,29.63,North,0,0.0,0.0,40,0.00,,,0.00,WUHU21623XXSP,2013-03-08 16:24:00,
2013-03-08 11:29:00,73.9,48.1,29.62,North,0,0.0,0.0,40,0.00,,,0.00,WUHU21623XXSP,2013-03-08 16:29:00,
2013-03-08 11:34:00,74.3,48.5,29.62,NNW,337,0.0,0.0,40,0.00,,,0.00,WUHU21623XXSP,2013-03-08 16:34:00,
2013-03-08 11:39:00,74.7,47.3,29.62,North,0,0.0,0.0,38,0.00,,,0.00,WUHU21623XXSP,2013-03-08 16:39:00,
2013-03-08 11:44:00,74.1,46.0,29.62,NNW,337,0.0,0.0,37,0.00,,,0.00,WUHU21623XXSP,2013-03-08 16:44:00,
2013-03-08 11:49:00,74.7,47.3,29.62,North,0,0.0,0.0,38,0.00,,,0.00,WUHU21623XXSP,2013-03-08 16:49:00,
2013-03-08 11:54:00,75.7,48.3,29.61,NNE,22,0.0,0.0,38,0.00,,,0.00,WUHU21623XXSP,2013-03-08 16:54:00,
2013-03-08 11:59:00,75.9,47.7,29.61,WNW,292,0.0,0.0,37,0.00,,,0.00,WUHU21623XXSP,2013-03-08 16:59:00,
2013-03-08 12:04:00,75.9,47.7,29.61,WNW,292,0.0,0.0,37,0.00,,,0.00,WUHU21623XXSP,2013-03-08 17:04:00,
2013-03-08 12:09:00,75.9,47.7,29.61,WNW,292,0.0,0.0,37,0.00,,,0.00,WUHU21623XXSP,2013-03-08 17:09:00,
2013-03-08 12:14:00,76.3,47.2,29.61,NNW,337,0.0,0.0,36,0.00,,,0.00,WUHU21623XXSP,2013-03-08 17:14:00,
2013-03-08 12:19:00,75.0,46.1,29.61,North,0,0.0,0.0,36,0.00,,,0.00,WUHU21623XXSP,2013-03-08 17:19:00,
2013-03-08 12:24:00,75.9,46.9,29.61,NE,45,0.0,0.0,36,0.00,,,0.00,WUHU21623XXSP,2013-03-08 17:24:00,
2013-03-08 12:29:00,75.9,48.4,29.61,ENE,67,0.0,0.0,38,0.00,,,0.00,WUHU21623XXSP,2013-03-08 17:29:00,
2013-03-08 12:34:00,75.9,47.7,29.61,NE,45,0.0,0.0,37,0.00,,,0.00,WUHU21623XXSP,2013-03-08 17:34:00,
2013-03-08 12:39:00,75.9,46.9,29.60,NNW,337,0.0,0.0,36,0.00,,,0.00,WUHU21623XXSP,2013-03-08 17:39:00,
2013-03-08 12:44:00,75.9,46.9,29.60,East,90,0.0,0.0,36,0.00,,,0.00,WUHU21623XXSP,2013-03-08 17:44:00,
2013-03-08 12:49:00,75.9,46.9,29.60,North,0,0.0,0.0,36,0.00,,,0.00,WUHU21623XXSP,2013-03-08 17:49:00,
2013-03-08 12:54:00,76.8,47.7,29.60,WNW,292,0.0,0.0,36,0.00,,,0.00,WUHU21623XXSP,2013-03-08 17:54:00,
2013-03-08 12:59:00,77.5,48.3,29.59,NW,315,0.0,0.0,36,0.00,,,0.00,WUHU21623XXSP,2013-03-08 17:59:00,
2013-03-08 13:04:00,77.7,47.7,29.59,West,270,0.0,0.0,35,0.00,,,0.00,WUHU21623XXSP,2013-03-08 18:04:00,
2013-03-08 13:09:00,78.1,47.3,29.59,North,0,0.0,0.0,34,0.00,,,0.00,WUHU21623XXSP,2013-03-08 18:09:00,
2013-03-08 13:14:00,77.7,46.2,29.58,NNW,337,0.0,0.0,33,0.00,,,0.00,WUHU21623XXSP,2013-03-08 18:14:00,
2013-03-08 13:19:00,78.3,46.7,29.58,West,270,0.0,0.0,33,0.00,,,0.00,WUHU21623XXSP,2013-03-08 18:19:00,
2013-03-08 13:24:00,77.9,44.8,29.58,North,0,0.0,0.0,31,0.00,,,0.00,WUHU21623XXSP,2013-03-08 18:24:00,
2013-03-08 13:29:00,78.6,46.2,29.58,West,270,0.0,0.0,32,0.00,,,0.00,WUHU21623XXSP,2013-03-08 18:29:00,
2013-03-08 13:34:00,79.9,47.3,29.58,North,0,0.0,0.0,32,0.00,,,0.00,WUHU21623XXSP,2013-03-08 18:34:00,
2013-03-08 13:39:00,79.2,45.1,29.58,NNW,337,0.0,0.0,30,0.00,,,0.00,WUHU21623XXSP,2013-03-08 18:39:00,
2013-03-08 13:44:00,79.5,46.2,29.58,West,270,0.0,0.0,31,0.00,,,0.00,WUHU21623XXSP,2013-03-08 18:44:00,
2013-03-08 13:49:00,79.7,46.4,29.57,NW,315,0.0,0.0,31,0.00,,,0.00,WUHU21623XXSP,2013-03-08 18:49:00,
2013-03-08 13:54:00,78.4,44.5,29.57,NE,45,0.0,0.0,30,0.00,,,0.00,WUHU21623XXSP,2013-03-08 18:54:00,
2013-03-08 13:59:00,78.6,44.6,29.57,NNW,337,0.0,0.0,30,0.00,,,0.00,WUHU21623XXSP,2013-03-08 18:59:00,
2013-03-08 14:04:00,78.6,45.4,29.57,NE,45,0.0,0.0,31,0.00,,,0.00,WUHU21623XXSP,2013-03-08 19:04:00,
2013-03-08 14:09:00,79.0,45.7,29.57,ENE,67,0.0,0.0,31,0.00,,,0.00,WUHU21623XXSP,2013-03-08 19:09:00,
2013-03-08 14:14:00,79.2,45.9,29.57,NW,315,0.0,0.0,31,0.00,,,0.00,WUHU21623XXSP,2013-03-08 19:14:00,
2013-03-08 14:19:00,79.0,45.7,29.57,NW,315,0.0,0.0,31,0.00,,,0.00,WUHU21623XXSP,2013-03-08 19:19:00,
2013-03-08 14:24:00,79.3,46.0,29.57,NNE,22,0.0,0.0,31,0.00,,,0.00,WUHU21623XXSP,2013-03-08 19:24:00,
2013-03-08 14:29:00,79.5,46.2,29.56,NNE,22,0.0,0.0,31,0.00,,,0.00,WUHU21623XXSP,2013-03-08 19:29:00,
2013-03-08 14:34:00,78.6,45.4,29.56,North,0,0.0,0.0,31,0.00,,,0.00,WUHU21623XXSP,2013-03-08 19:34:00,
2013-03-08 14:39:00,79.3,46.8,29.56,NW,315,0.0,0.0,32,0.00,,,0.00,WUHU21623XXSP,2013-03-08 19:39:00,
2013-03-08 14:44:00,79.5,47.0,29.56,WNW,292,0.0,0.0,32,0.00,,,0.00,WUHU21623XXSP,2013-03-08 19:44:00,
2013-03-08 14:49:00,80.4,47.0,29.56,WSW,247,0.0,0.0,31,0.00,,,0.00,WUHU21623XXSP,2013-03-08 19:49:00,
2013-03-08 14:54:00,79.9,46.5,29.56,NNE,22,0.0,0.0,31,0.00,,,0.00,WUHU21623XXSP,2013-03-08 19:54:00,
2013-03-08 14:59:00,79.9,46.5,29.56,NNE,22,0.0,0.0,31,0.00,,,0.00,WUHU21623XXSP,2013-03-08 19:59:00,
2013-03-08 15:04:00,80.2,50.7,29.55,ENE,67,0.0,0.0,36,0.00,,,0.00,WUHU21623XXSP,2013-03-08 20:04:00,
2013-03-08 15:09:00,79.0,51.1,29.56,NNE,22,0.0,0.0,38,0.00,,,0.00,WUHU21623XXSP,2013-03-08 20:09:00,
2013-03-08 15:14:00,78.6,51.6,29.55,NE,45,0.0,0.0,39,0.00,,,0.00,WUHU21623XXSP,2013-03-08 20:14:00,
2013-03-08 15:19:00,78.3,52.0,29.55,NNE,22,0.0,0.0,40,0.00,,,0.00,WUHU21623XXSP,2013-03-08 20:19:00,
2013-03-08 15:24:00,77.5,52.0,29.55,SE,135,0.0,0.0,41,0.00,,,0.00,WUHU21623XXSP,2013-03-08 20:24:00,
2013-03-08 15:29:00,77.5,52.0,29.55,NE,45,0.0,0.0,41,0.00,,,0.00,WUHU21623XXSP,2013-03-08 20:29:00,
2013-03-08 15:34:00,76.6,51.8,29.55,NE,45,0.0,0.0,42,0.00,,,0.00,WUHU21623XXSP,2013-03-08 20:34:00,
2013-03-08 15:39:00,76.8,52.0,29.55,ENE,67,0.0,0.0,42,0.00,,,0.00,WUHU21623XXSP,2013-03-08 20:39:00,
2013-03-08 15:44:00,76.3,51.5,29.55,NE,45,0.0,0.0,42,0.00,,,0.00,WUHU21623XXSP,2013-03-08 20:44:00,
2013-03-08 15:49:00,75.9,51.8,29.55,ENE,67,0.0,0.0,43,0.00,,,0.00,WUHU21623XXSP,2013-03-08 20:49:00,
2013-03-08 15:54:00,75.4,51.9,29.55,NE,45,0.0,0.0,44,0.00,,,0.00,WUHU21623XXSP,2013-03-08 20:54:00,
2013-03-08 15:59:00,75.6,52.1,29.55,NE,45,0.0,0.0,44,0.00,,,0.00,WUHU21623XXSP,2013-03-08 20:59:00,
2013-03-08 16:04:00,75.4,51.9,29.55,SE,135,0.0,0.0,44,0.00,,,0.00,WUHU21623XXSP,2013-03-08 21:04:00,
2013-03-08 16:09:00,75.0,51.5,29.55,NE,45,0.0,0.0,44,0.00,,,0.00,WUHU21623XXSP,2013-03-08 21:09:00,
2013-03-08 16:14:00,75.0,52.2,29.55,ENE,67,0.0,0.0,45,0.00,,,0.00,WUHU21623XXSP,2013-03-08 21:14:00,
2013-03-08 16:19:00,74.8,52.0,29.55,SE,135,0.0,0.0,45,0.00,,,0.00,WUHU21623XXSP,2013-03-08 21:19:00,
2013-03-08 16:24:00,74.5,52.3,29.55,ESE,112,0.0,0.0,46,0.00,,,0.00,WUHU21623XXSP,2013-03-08 21:24:00,
2013-03-08 16:29:00,74.5,52.3,29.55,ENE,67,0.0,0.0,46,0.00,,,0.00,WUHU21623XXSP,2013-03-08 21:29:00,
2013-03-08 16:34:00,74.5,52.3,29.55,NE,45,0.0,0.0,46,0.00,,,0.00,WUHU21623XXSP,2013-03-08 21:34:00,
2013-03-08 16:39:00,74.1,51.9,29.55,ENE,67,0.0,0.0,46,0.00,,,0.00,WUHU21623XXSP,2013-03-08 21:39:00,
2013-03-08 16:44:00,74.1,51.9,29.56,NE,45,0.0,0.0,46,0.00,,,0.00,WUHU21623XXSP,2013-03-08 21:44:00,
2013-03-08 16:49:00,73.9,51.7,29.56,NE,45,0.0,0.0,46,0.00,,,0.00,WUHU21623XXSP,2013-03-08 21:49:00,
2013-03-08 16:54:00,73.4,51.8,29.56,East,90,0.0,0.0,47,0.00,,,0.00,WUHU21623XXSP,2013-03-08 21:54:00,
2013-03-08 16:59:00,73.2,51.7,29.56,NE,45,0.0,0.0,47,0.00,,,0.00,WUHU21623XXSP,2013-03-08 21:59:00,
2013-03-08 17:04:00,72.5,51.6,29.56,NE,45,0.0,0.0,48,0.00,,,0.00,WUHU21623XXSP,2013-03-08 22:04:00,
2013-03-08 17:09:00,71.8,52.1,29.56,NNE,22,0.0,0.0,50,0.00,,,0.00,WUHU21623XXSP,2013-03-08 22:09:00,
2013-03-08 17:14:00,71.8,52.1,29.56,NE,45,0.0,0.0,50,0.00,,,0.00,WUHU21623XXSP,2013-03-08 22:14:00,
2013-03-08 17:19:00,71.8,52.1,29.56,NE,45,0.0,0.0,50,0.00,,,0.00,WUHU21623XXSP,2013-03-08 22:19:00,
2013-03-08 17:24:00,71.4,51.8,29.56,NNE,22,0.0,0.0,50,0.00,,,0.00,WUHU21623XXSP,2013-03-08 22:24:00,
2013-03-08 17:29:00,71.2,51.7,29.56,NE,45,0.0,0.0,50,0.00,,,0.00,WUHU21623XXSP,2013-03-08 22:29:00,
2013-03-08 17:34:00,71.1,52.0,29.57,NE,45,0.0,0.0,51,0.00,,,0.00,WUHU21623XXSP,2013-03-08 22:34:00,
2013-03-08 17:39:00,70.9,51.8,29.57,NE,45,0.0,0.0,51,0.00,,,0.00,WUHU21623XXSP,2013-03-08 22:39:00,
2013-03-08 17:44:00,70.5,51.5,29.57,NE,45,0.0,0.0,51,0.00,,,0.00,WUHU21623XXSP,2013-03-08 22:44:00,
2013-03-08 17:49:00,70.2,51.7,29.57,NE,45,0.0,0.0,52,0.00,,,0.00,WUHU21623XXSP,2013-03-08 22:49:00,
2013-03-08 17:54:00,70.0,52.0,29.57,NE,45,0.0,0.0,53,0.00,,,0.00,WUHU21623XXSP,2013-03-08 22:54:00,
2013-03-08 17:59:00,69.6,51.7,29.58,ENE,67,0.0,0.0,53,0.00,,,0.00,WUHU21623XXSP,2013-03-08 22:59:00,
2013-03-08 18:04:00,69.4,51.5,29.58,ENE,67,0.0,0.0,53,0.00,,,0.00,WUHU21623XXSP,2013-03-08 23:04:00,
2013-03-08 18:09:00,69.1,51.2,29.58,NNE,22,0.0,0.0,53,0.00,,,0.00,WUHU21623XXSP,2013-03-08 23:09:00,
2013-03-08 18:14:00,68.7,51.4,29.58,NNE,22,0.0,0.0,54,0.00,,,0.00,WUHU21623XXSP,2013-03-08 23:14:00,
2013-03-08 18:19:00,68.5,51.2,29.58,NE,45,0.0,0.0,54,0.00,,,0.00,WUHU21623XXSP,2013-03-08 23:19:00,
2013-03-08 18:24:00,68.2,50.8,29.58,NE,45,0.0,0.0,54,0.00,,,0.00,WUHU21623XXSP,2013-03-08 23:24:00,
2013-03-08 18:29:00,68.2,50.8,29.58,NNE,22,0.0,0.0,54,0.00,,,0.00,WUHU21623XXSP,2013-03-08 23:29:00,
2013-03-08 18:34:00,67.8,50.5,29.58,NE,45,0.0,0.0,54,0.00,,,0.00,WUHU21623XXSP,2013-03-08 23:34:00,
2013-03-08 18:39:00,67.6,50.8,29.58,NNE,22,0.0,0.0,55,0.00,,,0.00,WUHU21623XXSP,2013-03-08 23:39:00,
2013-03-08 18:44:00,67.6,50.8,29.58,NNE,22,0.0,0.0,55,0.00,,,0.00,WUHU21623XXSP,2013-03-08 23:44:00,
2013-03-08 18:49:00,67.3,51.0,29.58,NE,45,0.0,0.0,56,0.00,,,0.00,WUHU21623XXSP,2013-03-08 23:49:00,
2013-03-08 18:54:00,67.1,50.8,29.58,NNE,22,0.0,0.0,56,0.00,,,0.00,WUHU21623XXSP,2013-03-08 23:54:00,
2013-03-08 18:59:00,66.9,51.2,29.58,NE,45,0.0,0.0,57,0.00,,,0.00,WUHU21623XXSP,2013-03-08 23:59:00,
2013-03-08 19:04:00,66.9,51.2,29.58,NE,45,0.0,0.0,57,0.00,,,0.00,WUHU21623XXSP,2013-03-09 00:04:00,
2013-03-08 19:09:00,66.7,51.0,29.59,NE,45,0.0,0.0,57,0.00,,,0.00,WUHU21623XXSP,2013-03-09 00:09:00,
2013-03-08 19:14:00,66.6,50.8,29.59,NE,45,0.0,0.0,57,0.00,,,0.00,WUHU21623XXSP,2013-03-09 00:14:00,
2013-03-08 19:19:00,66.4,51.2,29.59,NE,45,0.0,0.0,58,0.00,,,0.00,WUHU21623XXSP,2013-03-09 00:19:00,
2013-03-08 19:24:00,66.2,51.0,29.59,NE,45,0.0,0.0,58,0.00,,,0.00,WUHU21623XXSP,2013-03-09 00:24:00,
2013-03-08 19:29:00,66.0,50.8,29.60,NNE,22,0.0,0.0,58,0.00,,,0.00,WUHU21623XXSP,2013-03-09 00:29:00,
2013-03-08 19:34:00,65.8,51.1,29.59,NNE,22,0.0,0.0,59,0.00,,,0.00,WUHU21623XXSP,2013-03-09 00:34:00,
2013-03-08 19:39:00,65.8,51.1,29.60,NNE,22,0.0,0.0,59,0.00,,,0.00,WUHU21623XXSP,2013-03-09 00:39:00,
2013-03-08 19:44:00,65.8,50.6,29.60,NNE,22,0.0,0.0,58,0.00,,,0.00,WUHU21623XXSP,2013-03-09 00:44:00,
2013-03-08 19:49:00,65.5,50.8,29.60,NNE,22,0.0,0.0,59,0.00,,,0.00,WUHU21623XXSP,2013-03-09 00:49:00,
2013-03-08 19:54:00,65.3,50.6,29.60,NNE,22,0.0,0.0,59,0.00,,,0.00,WUHU21623XXSP,2013-03-09 00:54:00,
2013-03-08 19:59:00,65.1,50.4,29.60,NNE,22,0.0,0.0,59,0.00,,,0.00,WUHU21623XXSP,2013-03-09 00:59:00,
2013-03-08 20:04:00,65.1,50.4,29.60,NNE,22,0.0,0.0,59,0.00,,,0.00,WUHU21623XXSP,2013-03-09 01:04:00,
2013-03-08 20:09:00,64.9,50.2,29.60,NNE,22,0.0,0.0,59,0.00,,,0.00,WUHU21623XXSP,2013-03-09 01:09:00,
2013-03-08 20:14:00,64.8,50.5,29.60,NNE,22,0.0,0.0,60,0.00,,,0.00,WUHU21623XXSP,2013-03-09 01:14:00,
2013-03-08 20:19:00,64.6,50.4,29.60,NNE,22,0.0,0.0,60,0.00,,,0.00,WUHU21623XXSP,2013-03-09 01:19:00,
2013-03-08 20:24:00,64.4,50.2,29.60,NNE,22,0.0,0.0,60,0.00,,,0.00,WUHU21623XXSP,2013-03-09 01:24:00,
2013-03-08 20:29:00,64.2,50.4,29.60,NNE,22,0.0,0.0,61,0.00,,,0.00,WUHU21623XXSP,2013-03-09 01:29:00,
2013-03-08 20:34:00,64.2,50.4,29.61,NNE,22,0.0,0.0,61,0.00,,,0.00,WUHU21623XXSP,2013-03-09 01:34:00,
2013-03-08 20:39:00,64.2,50.4,29.61,NNE,22,0.0,0.0,61,0.00,,,0.00,WUHU21623XXSP,2013-03-09 01:39:00,
2013-03-08 20:44:00,64.0,50.3,29.61,NNE,22,0.0,0.0,61,0.00,,,0.00,WUHU21623XXSP,2013-03-09 01:44:00,
2013-03-08 20:49:00,64.0,50.7,29.61,NNE,22,0.0,0.0,62,0.00,,,0.00,WUHU21623XXSP,2013-03-09 01:49:00,
2013-03-08 20:54:00,63.7,50.4,29.62,NNE,22,0.0,0.0,62,0.00,,,0.00,WUHU21623XXSP,2013-03-09 01:54:00,
2013-03-08 20:59:00,63.7,50.4,29.61,NNE,22,0.0,0.0,62,0.00,,,0.00,WUHU21623XXSP,2013-03-09 01:59:00,
2013-03-08 21:04:00,63.7,50.8,29.62,NNE,22,0.0,0.0,63,0.00,,,0.00,WUHU21623XXSP,2013-03-09 02:04:00,
2013-03-08 21:09:00,63.5,50.6,29.62,NNE,22,0.0,0.0,63,0.00,,,0.00,WUHU21623XXSP,2013-03-09 02:09:00,
2013-03-08 21:14:00,63.3,50.5,29.62,NNE,22,0.0,0.0,63,0.00,,,0.00,WUHU21623XXSP,2013-03-09 02:14:00,
2013-03-08 21:19:00,63.1,50.7,29.62,NNE,22,0.0,0.0,64,0.00,,,0.00,WUHU21623XXSP,2013-03-09 02:19:00,
2013-03-08 21:24:00,63.0,50.5,29.62,NNE,22,0.0,0.0,64,0.00,,,0.00,WUHU21623XXSP,2013-03-09 02:24:00,
2013-03-08 21:29:00,62.8,50.4,29.62,NNE,22,0.0,0.0,64,0.00,,,0.00,WUHU21623XXSP,2013-03-09 02:29:00,
2013-03-08 21:34:00,62.8,50.4,29.62,NNE,22,0.0,0.0,64,0.00,,,0.00,WUHU21623XXSP,2013-03-09 02:34:00,
2013-03-08 21:39:00,62.8,50.4,29.62,NNE,22,0.0,0.0,64,0.00,,,0.00,WUHU21623XXSP,2013-03-09 02:39:00,
2013-03-08 21:44:00,62.8,50.4,29.62,NNE,22,0.0,0.0,64,0.00,,,0.00,WUHU21623XXSP,2013-03-09 02:44:00,
2013-03-08 21:49:00,62.6,50.2,29.62,NNE,22,0.0,0.0,64,0.00,,,0.00,WUHU21623XXSP,2013-03-09 02:49:00,
2013-03-08 21:54:00,62.4,50.1,29.62,NNE,22,0.0,0.0,64,0.00,,,0.00,WUHU21623XXSP,2013-03-09 02:54:00,
2013-03-08 21:59:00,62.4,50.1,29.62,NNE,22,0.0,0.0,64,0.00,,,0.00,WUHU21623XXSP,2013-03-09 02:59:00,
2013-03-08 22:04:00,62.1,50.1,29.62,NNE,22,0.0,0.0,65,0.00,,,0.00,WUHU21623XXSP,2013-03-09 03:04:00,
2013-03-08 22:09:00,61.9,50.0,29.62,NNE,22,0.0,0.0,65,0.00,,,0.00,WUHU21623XXSP,2013-03-09 03:09:00,
2013-03-08 22:14:00,61.7,49.8,29.62,NNE,22,0.0,0.0,65,0.00,,,0.00,WUHU21623XXSP,2013-03-09 03:14:00,
2013-03-08 22:19:00,61.7,50.2,29.61,NNE,22,0.0,0.0,66,0.00,,,0.00,WUHU21623XXSP,2013-03-09 03:19:00,
2013-03-08 22:24:00,61.5,50.1,29.61,NNE,22,0.0,0.0,66,0.00,,,0.00,WUHU21623XXSP,2013-03-09 03:24:00,
2013-03-08 22:30:00,61.3,50.3,29.62,NNE,22,0.0,0.0,67,0.00,,,0.00,WUHU21623XXSP,2013-03-09 03:30:00,
2013-03-08 22:35:00,61.2,50.2,29.62,NNE,22,0.0,0.0,67,0.00,,,0.00,WUHU21623XXSP,2013-03-09 03:35:00,
2013-03-08 22:40:00,61.2,50.2,29.62,NNE,22,0.0,0.0,67,0.00,,,0.00,WUHU21623XXSP,2013-03-09 03:40:00,
2013-03-08 22:45:00,61.2,50.2,29.62,NNE,22,0.0,0.0,67,0.00,,,0.00,WUHU21623XXSP,2013-03-09 03:45:00,
2013-03-08 22:50:00,61.2,49.7,29.61,NNE,22,0.0,0.0,66,0.00,,,0.00,WUHU21623XXSP,2013-03-09 03:50:00,
2013-03-08 22:55:00,61.0,49.6,29.61,NNE,22,0.0,0.0,66,0.00,,,0.00,WUHU21623XXSP,2013-03-09 03:55:00,
2013-03-08 23:00:00,61.0,49.6,29.61,NNE,22,0.0,0.0,66,0.00,,,0.00,WUHU21623XXSP,2013-03-09 04:00:00,
2013-03-08 23:05:00,60.6,49.2,29.61,NNE,22,0.0,0.0,66,0.00,,,0.00,WUHU21623XXSP,2013-03-09 04:05:00,
2013-03-08 23:10:00,60.6,49.2,29.61,NNE,22,0.0,0.0,66,0.00,,,0.00,WUHU21623XXSP,2013-03-09 04:10:00,
2013-03-08 23:15:00,60.6,49.2,29.61,NNE,22,0.0,0.0,66,0.00,,,0.00,WUHU21623XXSP,2013-03-09 04:15:00,
2013-03-08 23:20:00,60.6,48.8,29.61,NNE,22,0.0,0.0,65,0.00,,,0.00,WUHU21623XXSP,2013-03-09 04:20:00,
2013-03-08 23:25:00,60.4,48.7,29.61,NNE,22,0.0,0.0,65,0.00,,,0.00,WUHU21623XXSP,2013-03-09 04:25:00,
2013-03-08 23:30:00,60.6,48.8,29.60,NNE,22,0.0,0.0,65,0.00,,,0.00,WUHU21623XXSP,2013-03-09 04:30:00,
2013-03-08 23:34:00,60.4,48.7,29.60,NNE,22,0.0,0.0,65,0.00,,,0.00,WUHU21623XXSP,2013-03-09 04:34:00,
2013-03-08 23:39:00,60.4,48.7,29.60,NNE,22,0.0,0.0,65,0.00,,,0.00,WUHU21623XXSP,2013-03-09 04:39:00,
2013-03-08 23:45:00,60.4,48.7,29.59,NNE,22,0.0,0.0,65,0.00,,,0.00,WUHU21623XXSP,2013-03-09 04:45:00,
2013-03-08 23:49:00,60.1,48.3,29.59,NNE,22,0.0,0.0,65,0.00,,,0.00,WUHU21623XXSP,2013-03-09 04:49:00,
2013-03-08 23:54:00,60.1,48.3,29.59,NNE,22,0.0,0.0,65,0.00,,,0.00,WUHU21623XXSP,2013-03-09 04:54:00,
2013-03-08 23:59:00,59.9,48.1,29.59,NNE,22,0.0,0.0,65,0.00,,,0.00,WUHU21623XXSP,2013-03-09 04:59:00,